Theta_e
300 300 300 300 300 300 301 301 301 301 301 301 301 302 304 304 303 303 303 303 303 304 304 305 306 304 304 304 304 306 306 305 305 305 305 305 304 305 305 305 306 307 308 310 310 311 310 310 310 310 311 309 309 310 310 308 307 312 317 317 315 314 311 307 309 310 311 309 306 304 305 306 304 301 300 300 301 299 298 297 296 297 296 297 296 296 296 296
300 300 300 300 301 301 301 301 302 302 302 301 302 302 303 304 304 303 303 303 303 304 305 305 306 305 304 304 304 305 305 305 306 305 305 303 303 305 305 305 306 307 308 309 308 309 309 308 309 310 310 308 308 310 311 309 308 311 313 314 311 308 304 302 305 306 308 308 305 303 303 303 302 301 301 301 302 301 300 298 297 296 296 297 296 296 296 296
300 300 301 301 301 301 301 301 302 303 303 302 302 302 303 304 304 304 303 304 304 304 304 304 305 305 304 303 303 304 304 307 306 303 304 303 303 305 306 306 306 307 307 308 307 307 307 307 309 310 309 308 307 308 309 308 308 309 311 313 308 305 303 301 302 303 304 305 304 303 301 300 299 299 301 303 303 302 301 300 298 297 296 296 296 297 296 295
300 301 301 301 301 301 301 302 303 304 304 303 302 302 303 304 304 304 304 304 304 304 304 304 304 304 305 304 304 303 304 308 305 303 303 302 303 305 306 306 306 307 307 307 307 306 306 307 308 308 308 308 307 307 306 305 307 306 307 310 306 304 304 301 300 301 301 303 304 303 302 301 298 298 300 303 306 303 300 299 298 298 297 296 297 296 295 295
301 301 301 301 301 301 302 303 304 305 304 303 302 302 303 304 304 305 305 304 304 305 305 305 305 304 305 304 304 304 305 309 305 303 303 302 303 305 305 306 307 307 307 307 308 307 307 308 308 307 307 307 307 307 304 303 304 303 301 303 302 303 303 299 299 299 299 302 303 303 302 300 298 298 299 302 305 301 297 297 297 297 297 296 296 295 294 294
301 301 302 302 302 302 304 305 305 305 305 303 302 303 304 304 304 304 305 304 305 305 305 305 305 305 305 305 305 305 307 307 304 302 302 301 303 305 305 306 306 307 307 307 308 308 308 308 308 306 305 305 305 305 304 303 304 304 300 299 300 301 301 298 298 297 299 302 301 301 300 299 299 298 297 298 298 296 295 296 297 297 296 296 295 294 294 295
301 302 302 302 302 303 304 305 305 305 304 303 303 303 304 305 305 305 305 305 305 305 305 305 305 305 306 306 306 306 305 304 302 302 302 301 304 304 305 306 306 308 308 308 308 308 308 307 307 306 306 305 304 304 303 303 304 304 301 299 299 299 298 297 297 297 299 300 298 299 299 299 301 298 296 296 295 295 295 296 296 295 295 294 294 294 294 294
301 301 302 302 302 304 305 304 304 304 304 303 304 304 305 305 305 305 305 305 305 305 305 305 305 305 306 307 308 307 304 303 302 302 302 302 304 305 306 306 307 308 307 306 306 307 307 307 306 306 306 305 304 304 303 303 302 302 300 299 298 298 297 297 297 297 298 298 298 299 299 299 299 298 297 295 295 294 295 295 295 294 294 294 294 294 293 293
301 301 302 302 302 304 304 304 304 303 303 303 304 305 305 305 305 305 306 306 306 306 306 306 306 306 305 307 311 308 303 302 302 302 302 302 304 306 306 306 306 307 305 304 305 307 307 305 305 306 305 303 303 303 304 304 302 300 300 299 299 299 298 298 298 297 297 297 298 299 298 297 297 297 297 295 294 294 295 295 294 295 294 294 295 294 294 293
301 301 302 302 302 304 304 304 304 303 303 304 305 305 305 305 305 306 306 307 307 306 307 306 306 306 306 308 311 307 303 302 302 302 302 302 304 305 306 305 305 305 304 303 304 306 306 305 305 305 304 302 302 302 303 303 301 299 300 299 299 299 298 299 299 297 298 297 298 299 298 297 297 298 298 295 294 294 295 295 294 295 294 294 295 294 294 294
301 301 302 302 302 303 304 304 304 304 303 304 305 305 305 305 305 305 306 307 306 307 307 307 307 306 305 306 307 305 302 302 302 302 302 302 303 303 303 303 304 304 304 303 302 302 304 304 304 304 304 302 301 301 300 300 300 299 300 300 300 300 299 299 299 298 298 298 297 298 299 298 297 298 297 294 294 294 295 295 294 294 294 294 294 294 294 294
302 302 302 302 302 302 303 304 304 304 304 304 305 305 305 305 305 305 305 306 306 306 306 307 307 306 305 305 304 302 302 301 302 302 302 302 302 302 302 302 303 303 303 303 301 301 302 302 303 304 303 302 301 301 300 299 299 299 301 302 301 302 300 298 299 298 299 298 295 297 300 300 297 296 295 294 294 294 295 295 294 294 294 294 294 295 295 295
302 302 302 302 302 302 303 304 304 304 305 304 304 305 305 305 305 305 305 306 306 306 306 306 306 306 307 305 302 302 302 301 302 302 302 302 302 302 302 302 302 301 301 301 300 301 301 302 303 302 301 302 301 301 300 298 299 300 301 302 303 304 301 298 298 298 299 298 295 297 302 301 297 295 294 293 293 294 295 295 295 295 294 294 294 295 295 295
302 302 303 302 302 303 303 303 304 304 304 305 304 305 305 306 306 306 306 306 306 306 306 306 306 306 306 304 302 302 302 302 302 303 302 302 302 302 302 302 302 302 302 301 300 301 302 302 302 301 300 300 299 300 301 300 300 301 301 302 304 305 302 298 297 298 299 298 296 299 302 301 297 295 294 293 293 294 295 295 295 295 295 295 295 295 295 296
302 302 302 303 302 303 303 303 303 304 304 305 305 304 305 306 306 306 306 307 306 307 306 306 306 307 307 304 302 302 302 303 302 301 302 302 302 302 303 302 302 302 302 302 301 301 302 302 302 301 300 300 301 302 302 302 302 301 303 304 303 304 302 299 297 297 298 298 297 300 302 300 297 295 294 293 293 294 295 295 295 295 295 295 295 295 296 296
302 302 303 303 303 303 303 303 303 304 304 305 305 305 305 305 305 305 305 306 307 307 307 306 305 307 308 305 304 303 302 302 301 301 302 301 301 301 302 302 302 302 302 302 302 302 302 303 302 300 300 301 301 303 305 305 304 303 304 304 302 302 302 300 299 297 297 298 298 301 302 300 297 295 294 293 293 295 295 296 296 296 296 296 296 295 295 296
302 302 303 303 303 303 303 303 304 304 304 305 305 305 305 305 305 304 305 306 306 306 307 305 304 306 307 304 303 303 302 301 301 301 302 302 301 301 302 302 302 302 303 304 303 304 304 304 303 302 302 301 300 303 308 308 306 304 303 302 300 300 301 301 300 298 297 299 299 300 299 297 296 295 294 293 293 295 296 296 296 296 297 296 296 296 296 296
302 302 303 303 303 303 303 303 304 304 304 305 305 305 306 306 305 306 306 306 306 307 307 305 305 308 307 304 302 302 301 301 301 301 302 302 302 301 301 301 301 304 307 307 304 304 305 304 304 304 303 301 300 303 307 306 304 304 303 303 301 300 301 301 300 298 297 299 299 299 298 296 295 295 295 294 294 295 296 296 297 296 296 296 296 296 296 296
302 302 303 303 303 303 303 304 304 304 304 304 303 304 305 306 306 305 304 305 308 309 308 305 306 309 306 303 302 301 301 301 301 301 301 302 302 302 301 301 303 306 309 307 304 303 304 304 304 304 302 300 298 299 302 301 300 301 301 302 302 301 300 299 298 297 296 298 298 298 298 297 296 296 296 295 295 296 297 296 297 296 296 296 296 296 296 296
302 302 303 304 303 303 303 305 305 304 304 303 303 304 307 311 311 305 302 302 303 305 307 306 306 307 305 303 301 301 302 302 302 301 301 301 301 302 302 303 307 305 303 304 303 303 303 303 302 301 299 298 297 296 296 296 298 299 300 301 301 301 300 298 298 297 295 298 297 296 298 297 297 296 296 296 296 297 297 297 296 296 296 296 296 296 296 296
302 302 303 304 303 303 304 306 306 304 304 303 303 307 311 315 314 306 303 303 300 300 304 303 303 304 302 301 299 299 302 304 304 302 301 301 301 303 303 305 308 304 301 301 302 303 304 303 300 298 297 295 295 294 295 297 298 299 300 301 301 301 300 298 298 297 296 298 298 296 298 298 296 296 296 296 297 297 296 296 296 296 296 296 296 296 296 296
302 302 303 304 303 302 304 306 306 305 305 303 305 307 306 306 307 304 304 305 301 299 301 301 301 303 301 300 299 299 301 304 304 302 300 302 303 303 302 303 305 303 302 303 304 305 303 301 299 296 295 295 295 294 296 298 299 299 300 302 302 301 299 298 298 297 297 298 298 297 298 298 296 296 295 295 296 296 295 295 295 295 296 296 295 295 295 296
302 302 303 304 304 302 303 306 306 305 305 305 305 303 302 302 302 303 304 307 304 300 302 303 303 304 303 301 300 301 302 301 302 302 299 302 304 303 302 302 302 302 302 304 306 306 303 300 297 294 294 296 297 297 297 299 300 300 301 302 302 300 300 301 299 297 297 298 298 298 299 298 296 296 295 295 295 295 295 295 295 295 295 295 295 295 295 295
303 303 303 304 305 304 303 304 306 306 306 305 304 302 303 303 303 303 304 307 307 303 301 301 301 303 303 301 299 301 302 299 300 300 298 300 303 302 302 301 301 301 301 302 303 303 301 298 295 294 295 297 298 299 299 301 302 300 300 301 301 299 299 301 299 298 298 298 297 298 300 299 297 297 296 295 295 295 295 295 295 295 295 295 295 296 295 295
303 303 303 303 305 305 303 303 304 304 304 304 304 303 303 303 303 303 306 310 309 305 302 300 300 301 300 299 300 301 302 300 299 299 297 299 301 302 301 299 301 301 299 301 302 300 298 296 294 296 297 297 299 299 298 300 303 301 298 298 298 298 298 299 299 299 301 301 298 298 302 303 298 297 297 296 295 295 295 295 296 295 295 295 295 295 295 295
303 303 304 304 304 306 306 304 302 302 304 302 302 303 303 304 303 303 309 314 310 306 305 305 304 302 301 301 299 299 304 304 298 297 298 298 299 301 301 300 301 300 299 300 301 300 299 296 295 296 298 299 300 299 296 297 303 303 298 296 296 297 298 299 299 301 303 302 297 296 301 303 300 298 297 296 295 296 295 295 296 295 295 295 295 295 295 295
302 302 303 304 304 306 307 305 301 302 305 302 300 302 302 304 303 302 309 316 310 305 306 307 305 303 302 301 299 301 307 305 300 299 298 298 299 300 302 301 301 301 297 299 303 301 299 298 297 297 299 301 301 299 297 296 301 302 296 295 297 297 298 299 300 301 302 300 298 297 299 302 302 300 296 295 295 296 296 296 296 295 295 295 295 295 295 295
302 302 303 304 303 304 304 303 300 300 302 300 298 300 301 302 302 303 312 315 309 305 305 306 304 302 302 301 301 303 303 301 303 302 297 297 300 301 302 300 300 300 297 301 305 300 297 298 297 297 300 301 299 297 296 296 299 299 295 295 297 297 298 299 300 301 299 300 302 300 298 302 304 300 295 295 296 296 297 296 296 296 295 295 295 295 295 295
302 302 302 303 303 303 302 301 301 299 299 299 298 299 299 301 302 307 316 313 306 303 303 304 304 303 304 304 303 303 301 300 302 300 298 298 299 300 300 299 300 301 299 302 303 299 297 296 295 296 299 298 297 296 295 296 298 296 295 296 297 297 298 298 301 301 300 302 304 300 297 301 303 300 297 296 296 298 298 297 296 296 296 296 295 295 295 295
301 302 302 302 303 303 303 302 300 299 299 299 300 299 299 303 307 313 315 310 306 304 303 304 304 302 304 308 306 302 302 302 299 299 301 300 299 300 298 297 300 301 300 301 300 298 296 295 296 297 297 296 296 295 294 294 296 296 297 299 299 298 298 298 300 300 302 304 302 298 297 299 302 302 300 298 298 298 298 297 296 296 295 296 295 295 295 295
300 302 302 302 303 302 304 303 300 300 301 300 300 300 302 308 315 316 312 308 306 306 304 304 303 301 302 305 304 301 302 302 299 300 302 300 299 300 299 299 301 302 303 302 300 299 297 298 298 296 295 295 296 296 295 294 295 297 298 300 301 300 299 300 300 300 303 304 300 296 295 297 301 302 300 299 297 296 297 297 296 296 296 296 296 296 295 295
300 301 301 301 302 302 303 302 300 301 301 301 301 305 312 314 314 313 308 306 306 305 304 303 301 300 300 302 301 299 301 302 299 299 298 299 298 297 298 298 298 303 306 303 301 301 299 298 297 296 295 295 297 299 299 297 297 299 299 300 303 303 302 303 302 301 302 302 297 295 295 297 301 301 299 299 297 296 296 297 296 296 296 296 296 296 296 295
299 301 301 301 301 302 302 301 301 302 302 302 303 311 321 318 311 307 305 307 304 300 300 301 300 299 300 303 301 298 299 299 299 299 297 298 299 296 297 296 295 301 304 302 302 303 302 299 297 298 297 295 296 300 301 300 299 300 299 300 303 303 302 303 302 301 302 301 296 293 295 299 301 300 298 297 297 295 295 295 295 295 295 295 295 295 295 295
299 301 302 301 301 301 301 301 302 303 302 303 307 315 321 315 308 305 306 305 300 298 299 300 300 300 300 301 298 297 300 299 298 301 299 299 300 299 298 298 296 297 299 301 301 301 305 304 299 298 297 296 295 296 297 297 298 298 296 298 302 301 302 303 302 302 302 301 298 295 296 300 301 299 297 296 295 294 293 293 293 293 293 294 294 293 294 294
300 301 301 301 300 300 301 300 302 304 303 307 318 320 316 310 306 307 307 302 298 299 300 298 300 303 302 299 297 296 299 300 298 299 300 299 299 298 297 297 296 295 297 302 301 298 303 303 298 295 295 295 295 294 293 295 299 298 295 299 301 299 299 300 298 298 298 298 299 297 298 299 298 297 295 294 295 294 294 294 293 294 294 293 293 294 295 295
299 300 302 301 299 300 301 300 302 303 304 315 327 318 310 307 303 305 307 301 299 301 301 301 302 304 304 301 299 298 297 298 299 300 299 297 297 297 296 295 295 294 296 301 300 299 303 302 296 295 295 293 294 294 292 295 299 299 298 300 297 294 295 297 295 293 293 298 300 298 299 300 298 297 295 295 295 296 295 295 294 295 295 294 295 295 296 295
300 301 302 300 299 300 300 300 301 301 307 322 326 310 303 301 298 299 301 299 297 297 301 305 302 301 305 304 301 300 299 299 299 301 301 298 298 297 295 295 294 293 294 296 298 297 300 303 297 295 297 294 291 293 293 293 295 299 301 298 293 292 294 297 298 297 297 301 300 297 298 299 299 299 297 296 297 297 297 296 295 296 296 295 296 296 296 295
300 301 302 300 299 300 300 301 299 301 312 323 318 305 299 299 295 294 296 296 296 296 302 306 302 299 303 305 302 299 299 302 301 301 301 300 299 297 295 295 294 293 292 294 297 295 296 303 299 294 296 295 291 294 297 296 294 296 298 295 294 298 299 298 299 299 300 301 300 298 297 297 299 300 299 298 298 298 297 297 296 296 296 296 296 296 296 295
300 305 308 301 299 300 300 300 298 306 322 321 312 305 300 298 296 293 295 295 295 298 302 303 301 300 300 301 302 299 298 302 301 300 301 301 300 297 294 294 294 294 292 292 296 295 293 301 303 295 294 295 295 297 299 299 296 295 296 295 294 297 298 298 297 297 300 301 300 300 299 300 300 299 299 299 298 298 297 297 297 297 296 296 295 295 295 295
298 308 310 300 299 302 299 299 304 316 324 313 305 303 298 297 296 293 294 295 294 297 300 300 301 303 302 299 298 298 298 300 299 299 300 299 299 297 293 293 294 294 293 292 294 295 293 298 303 299 295 296 298 298 297 297 297 297 298 298 297 296 295 296 295 294 297 300 299 298 301 302 300 297 298 299 297 297 297 296 296 296 296 295 295 295 295 294
299 311 311 299 299 301 301 306 309 308 307 301 299 300 298 297 297 294 293 292 293 294 295 297 299 300 303 302 298 297 298 299 298 299 299 298 299 298 293 292 293 293 294 295 295 295 295 297 301 301 299 299 297 293 291 292 293 296 298 298 298 297 296 299 298 293 292 296 296 296 300 302 299 295 296 297 296 295 295 294 295 295 295 295 295 295 294 294
306 313 306 300 300 300 306 314 301 294 300 300 297 298 298 297 296 294 293 291 293 294 294 296 297 297 300 301 299 298 299 300 299 298 299 297 297 297 293 290 290 291 294 296 295 294 294 295 299 301 298 295 293 289 288 289 289 291 293 294 295 295 297 301 302 297 293 292 292 293 297 300 297 293 294 295 294 294 293 293 293 294 294 294 294 294 294 293
316 312 302 300 299 301 311 317 301 295 299 296 293 294 294 295 295 294 293 294 294 295 297 298 296 296 297 296 298 301 300 299 299 297 297 296 295 294 291 289 290 291 293 295 295 293 294 295 299 301 296 292 290 288 287 287 288 293 293 291 293 294 295 297 297 296 295 293 293 295 298 301 297 293 293 294 293 293 293 292 293 294 294 294 294 294 293 293
312 307 305 301 298 304 318 319 310 302 296 294 295 295 293 293 294 294 295 297 296 294 298 298 295 295 295 292 296 298 297 299 299 296 295 296 295 292 289 288 290 292 294 295 295 294 296 297 299 302 302 300 298 295 294 292 292 295 295 291 290 291 293 294 292 293 296 295 295 297 300 302 298 293 293 294 294 294 295 294 293 293 294 294 294 293 293 293
305 304 307 304 297 303 312 310 309 307 299 299 300 296 295 295 293 293 295 295 294 293 296 297 294 294 293 291 294 295 294 297 299 296 295 295 294 291 289 289 291 292 293 294 294 294 295 296 298 302 305 305 305 303 301 298 295 295 294 291 290 291 294 296 294 295 298 295 293 296 300 301 299 296 296 297 296 296 296 296 295 294 294 294 294 294 294 293
307 306 311 312 304 301 300 295 299 305 302 304 304 297 298 298 294 292 293 294 294 292 294 295 293 294 294 294 298 299 295 294 296 297 297 296 295 292 289 289 291 293 293 293 292 292 294 295 295 300 303 303 304 302 298 296 296 296 295 293 292 291 292 294 295 297 297 294 293 297 298 299 299 298 298 298 298 297 297 296 296 295 295 295 294 294 293 293
308 307 307 311 309 306 304 298 299 303 303 305 305 299 299 299 295 293 292 293 294 293 293 294 294 296 298 298 300 301 297 295 296 297 297 295 293 291 288 289 291 292 294 294 291 291 295 296 294 297 300 299 298 297 294 294 295 296 295 295 294 292 291 293 296 297 295 295 298 298 295 296 298 298 298 298 298 297 296 296 295 294 294 294 293 293 293 293
302 304 298 299 305 308 307 304 301 303 303 303 301 298 299 300 297 297 296 293 293 293 295 297 295 296 298 298 300 301 298 298 298 297 297 294 292 292 290 290 291 291 292 292 290 292 296 296 292 294 299 297 294 294 293 292 293 294 294 294 294 292 292 294 296 295 294 297 300 297 294 295 297 297 298 298 297 296 296 295 294 293 293 293 293 293 293 293
298 302 295 292 300 303 301 299 299 304 306 304 301 298 300 302 299 297 295 294 295 294 295 299 298 296 297 296 299 302 301 301 301 299 299 297 294 293 294 293 292 290 290 292 291 291 294 296 293 291 297 298 294 291 290 290 292 293 293 294 294 293 292 293 295 294 294 296 297 296 295 295 296 296 297 297 296 295 294 293 293 293 293 293 293 293 293 293
302 306 301 298 301 299 296 296 300 307 305 302 304 300 297 301 300 296 293 295 299 296 294 299 299 295 296 296 298 302 300 299 300 299 297 299 298 295 295 296 295 291 291 292 291 289 292 295 293 291 296 299 293 289 290 291 292 293 294 293 292 293 293 292 293 293 293 294 294 294 294 294 295 296 296 295 295 294 294 294 294 294 294 293 293 293 293 294
298 299 299 306 307 300 299 298 299 306 305 302 306 302 297 300 299 296 295 293 296 297 295 298 298 295 295 296 298 299 297 295 297 296 295 296 297 295 294 295 295 295 293 292 291 291 292 293 291 292 299 300 295 293 294 292 291 293 296 296 292 292 293 292 292 293 293 294 294 293 295 296 297 297 295 295 295 295 296 296 295 295 294 293 293 293 293 294
296 295 296 307 309 299 298 299 299 305 306 304 304 301 299 300 297 297 299 295 292 294 294 295 297 296 296 297 297 297 295 293 293 292 292 293 292 292 292 292 293 294 294 292 292 291 291 294 293 294 299 301 296 295 295 295 298 301 302 301 296 292 291 292 292 292 292 294 295 296 298 299 298 297 296 296 297 296 297 296 295 294 293 293 293 293 293 293
Wind_Speed
14 14 14 14 15 15 14 14 12 11 9 9 9 10 11 16 21 19 16 15 13 13 14 11 5 15 17 13 4 5 20 26 30 47 41 30 35 26 22 17 15 18 14 9 9 9 14 16 13 13 14 11 7 5 6 8 7 2 4 8 6 6 5 5 6 4 4 6 6 4 2 5 6 5 3 3 10 10 10 10 9 11 10 9 9 7 6 4
14 14 14 16 17 17 16 15 14 13 10 8 8 9 10 15 21 18 18 23 24 21 18 15 7 12 16 14 11 5 9 19 26 39 36 34 32 22 20 16 13 16 16 17 14 12 12 8 10 16 12 7 6 6 7 6 8 6 5 8 7 6 5 4 5 4 5 7 8 7 5 7 5 3 1 3 8 9 10 10 8 9 8 8 7 5 5 3
14 14 15 17 17 18 17 16 14 13 12 9 7 8 9 12 19 17 16 26 31 31 29 23 14 6 12 13 11 9 6 13 24 28 34 37 29 21 19 15 13 12 14 18 19 20 15 7 14 17 11 9 7 7 10 6 6 7 6 9 7 5 7 6 6 6 6 7 8 8 8 10 8 3 1 6 10 10 9 7 5 7 6 5 5 5 4 4
14 14 15 16 18 19 18 17 15 14 12 9 6 7 8 9 15 18 14 16 22 29 34 34 30 16 2 10 10 6 7 6 15 21 34 36 27 20 16 13 12 9 9 11 15 20 15 12 19 15 10 10 8 10 12 8 4 6 6 9 6 4 8 7 6 6 5 5 8 8 8 11 8 6 4 3 7 9 8 7 5 5 4 4 4 4 4 4
14 13 14 16 18 19 18 17 16 15 12 8 7 6 8 8 9 16 19 13 9 13 20 28 34 32 24 8 6 7 6 3 11 26 34 32 24 18 14 12 10 8 7 8 9 12 9 11 15 12 9 7 8 10 10 7 5 7 8 8 5 4 7 5 4 5 3 4 8 8 8 7 5 9 10 6 7 7 5 6 5 5 4 4 4 3 3 3
14 12 13 16 18 18 18 18 17 15 11 8 8 7 8 8 7 11 21 21 11 4 5 8 13 22 31 29 24 15 5 4 11 27 31 28 22 16 13 12 9 8 9 11 10 10 9 11 12 9 8 9 12 11 8 6 3 8 8 7 8 7 8 5 4 4 2 6 8 8 7 6 9 10 11 12 11 6 4 4 4 5 4 4 3 3 3 3
13 12 12 15 16 18 20 20 18 15 10 10 10 9 8 9 8 8 16 25 21 11 5 3 2 4 12 24 37 31 13 5 14 24 26 25 21 16 13 13 12 16 19 17 16 15 14 15 16 10 10 12 13 14 15 14 11 13 11 8 10 10 9 6 6 7 7 11 8 7 7 6 10 9 8 11 9 5 4 4 4 4 4 3 3 3 3 3
12 11 12 14 14 18 23 24 21 15 11 11 10 9 10 11 11 10 15 25 29 23 14 7 4 1 2 8 19 19 9 8 20 23 24 25 23 18 14 12 11 16 19 17 11 11 13 13 11 8 11 11 9 12 14 16 15 14 11 8 8 8 7 5 6 9 10 10 6 10 13 10 11 10 10 10 7 5 4 4 4 3 3 3 3 3 2 2
12 12 12 13 12 15 22 25 23 16 12 12 11 10 11 14 16 16 15 18 23 28 25 18 12 7 7 5 6 10 8 14 20 19 23 26 24 20 19 19 19 20 19 15 8 6 7 5 5 7 13 10 7 7 5 7 9 9 11 9 9 9 7 5 7 8 7 5 3 11 13 9 8 7 9 9 5 4 2 4 3 2 3 3 3 2 2 2
13 12 13 12 10 11 17 23 26 18 12 12 12 11 12 12 15 18 18 14 11 15 20 24 27 24 21 11 8 11 8 17 18 16 22 27 27 24 24 24 25 28 25 23 20 14 9 12 13 13 15 10 7 8 7 9 9 10 14 14 13 13 9 6 8 6 5 6 5 9 12 7 3 1 5 5 5 4 2 3 3 2 3 2 2 2 2 3
14 12 12 12 9 7 10 19 26 21 12 11 12 12 11 9 8 12 17 19 16 15 12 13 19 30 40 28 13 10 9 17 17 14 19 26 31 30 29 26 23 26 25 22 21 14 11 15 14 8 8 9 11 14 14 13 13 11 12 14 13 13 13 11 8 4 1 4 7 5 12 10 6 4 4 4 5 4 3 3 3 3 3 2 2 3 2 3
15 13 12 12 10 7 7 13 21 24 15 9 11 12 12 11 10 9 11 15 19 24 22 16 8 10 28 28 12 7 11 17 17 12 15 21 27 29 29 31 28 27 25 19 16 11 7 2 5 7 6 8 11 12 10 7 7 6 4 9 9 10 14 13 9 7 2 3 6 1 7 9 9 6 5 5 4 3 3 2 3 3 3 3 3 3 3 4
15 14 12 11 11 7 5 7 13 21 20 9 7 10 12 12 13 11 9 8 8 12 17 20 18 11 13 13 9 12 14 19 17 9 12 16 18 22 25 29 30 30 31 26 20 21 18 10 15 18 7 6 7 7 10 4 1 3 1 3 4 5 9 12 10 9 2 2 5 3 3 5 7 6 5 4 4 3 2 2 3 3 3 3 3 4 5 5
15 14 13 11 11 9 6 5 7 14 21 15 6 7 11 12 15 15 13 11 8 8 8 8 14 20 16 7 7 17 17 19 18 13 15 14 11 15 19 22 24 26 28 26 23 24 24 20 24 19 7 7 7 7 9 3 1 2 1 1 1 1 4 7 10 11 2 1 5 3 2 4 5 7 6 3 3 2 2 3 4 4 4 5 4 5 5 6
16 15 14 12 10 10 7 5 5 8 18 21 10 5 7 10 12 13 14 14 12 12 14 11 9 11 11 7 6 18 21 21 23 21 19 16 13 10 10 15 18 19 21 22 19 19 21 20 18 12 5 4 4 7 7 4 3 2 1 1 3 2 2 4 8 12 5 1 6 4 2 5 5 7 6 3 2 1 2 4 5 6 6 6 5 5 5 6
17 15 14 12 11 11 7 5 4 5 12 23 24 13 5 3 2 6 9 11 14 14 13 14 12 9 7 4 6 16 20 19 22 21 15 15 18 12 8 8 9 11 15 18 17 16 20 19 10 6 5 2 2 3 3 4 4 3 3 3 3 2 2 1 4 11 10 4 6 5 2 5 3 5 4 2 2 1 2 4 6 6 6 6 5 5 5 6
17 16 14 12 12 11 7 4 3 3 6 12 25 27 21 12 2 2 1 2 9 12 13 15 10 9 8 5 6 9 12 15 19 20 14 11 16 16 12 6 5 7 6 12 19 15 14 11 3 2 6 5 3 1 1 4 4 3 4 3 3 3 2 1 2 8 12 4 6 8 6 4 3 3 3 2 3 2 3 5 6 6 6 6 6 6 6 6
17 16 14 12 12 11 8 4 1 2 6 6 8 17 26 27 20 16 12 6 3 4 10 18 11 6 6 7 6 8 11 14 18 21 16 8 10 16 16 9 5 6 1 5 14 11 7 5 1 3 6 7 7 4 2 5 3 3 3 2 3 3 4 4 3 6 11 7 8 8 8 6 4 3 2 3 3 2 4 4 5 6 6 6 6 7 8 8
17 17 13 11 13 12 8 5 1 4 6 6 5 1 7 15 25 32 32 23 10 4 4 10 9 4 3 6 9 12 10 11 15 21 21 11 7 11 14 13 6 4 3 2 7 8 3 3 3 4 6 8 7 6 4 4 3 3 2 3 4 3 4 3 3 5 7 6 9 7 7 6 5 3 3 3 2 3 5 5 5 5 5 5 6 7 7 8
16 17 13 11 13 13 10 8 4 3 5 5 5 1 1 1 9 15 21 20 11 6 6 2 4 4 3 3 11 13 7 8 15 23 29 17 6 6 10 9 5 8 6 1 4 5 2 6 6 5 5 6 5 4 2 1 2 3 3 4 4 3 4 2 3 5 3 2 6 5 5 6 4 4 3 2 1 4 5 6 5 5 5 5 6 7 7 7
16 16 14 10 11 13 12 11 7 3 5 5 6 3 1 1 3 3 3 9 8 9 8 4 3 4 3 3 12 14 4 6 16 27 34 20 6 5 8 7 4 8 6 1 1 2 2 8 7 5 4 4 4 2 1 2 1 2 3 4 3 2 4 2 3 5 2 1 3 2 3 6 4 3 3 2 2 4 4 4 5 5 5 5 6 7 7 6
17 16 14 10 9 12 12 13 11 5 6 6 9 9 5 5 11 11 5 5 6 9 6 4 5 5 3 4 13 13 3 5 15 24 31 22 11 6 4 6 8 5 4 2 2 3 7 8 5 5 3 3 0 1 1 3 2 1 2 2 3 2 2 2 2 5 3 1 2 1 1 4 3 2 3 2 2 3 2 2 3 4 4 5 5 6 6 6
17 16 15 10 7 10 11 12 11 8 10 12 15 15 12 13 15 11 5 6 3 5 4 4 5 5 4 6 13 12 5 7 7 15 26 18 8 6 3 8 11 8 8 7 3 5 7 6 6 4 2 2 3 3 1 2 3 3 1 1 2 1 1 2 3 5 4 3 2 2 1 2 2 1 2 2 1 1 1 2 2 2 2 4 4 4 4 6
18 16 16 12 6 7 9 10 11 13 17 20 21 17 14 13 12 8 3 3 2 1 1 2 2 4 4 5 11 8 7 7 3 10 22 14 3 2 4 7 8 10 11 11 11 11 8 5 5 3 1 1 3 5 3 1 2 4 4 2 2 1 2 2 2 1 2 4 3 2 3 2 3 3 3 2 1 1 1 2 2 2 2 2 3 3 3 5
19 17 16 14 7 4 6 8 10 15 16 16 16 13 11 9 6 4 2 1 2 1 1 1 2 4 3 6 12 5 4 4 3 7 14 12 4 2 2 2 4 6 4 7 12 11 8 4 3 1 2 1 2 6 7 4 0 3 4 3 2 1 2 2 1 2 3 3 3 2 3 2 4 4 4 2 2 3 1 2 2 1 1 2 3 3 3 4
19 18 16 15 10 4 3 4 6 9 9 9 9 7 6 6 5 2 1 1 3 2 3 1 0 6 6 8 12 2 3 3 3 10 15 12 6 0 2 1 2 4 2 2 6 5 5 3 1 0 0 1 3 6 6 5 2 1 2 2 1 1 2 2 2 3 1 2 2 1 3 1 3 5 5 3 3 4 3 4 3 2 2 2 3 3 4 5
18 19 17 16 13 7 2 2 3 4 3 4 5 4 4 4 3 1 1 1 3 1 4 4 2 6 7 10 11 1 1 4 2 11 17 13 8 2 3 3 2 3 1 1 3 3 4 4 4 3 1 1 4 5 5 5 3 2 2 1 2 2 2 2 4 2 2 1 2 1 2 3 1 2 3 2 4 6 5 5 5 4 3 3 4 4 5 6
17 19 18 15 14 11 7 4 3 3 3 4 4 3 3 2 1 1 1 2 3 1 2 2 2 5 4 8 13 5 1 5 2 7 12 12 11 4 6 7 3 4 1 2 3 3 3 6 7 6 4 4 4 4 4 5 3 3 2 1 0 1 1 2 3 2 2 1 2 3 4 4 1 3 3 2 5 7 7 7 6 4 4 3 3 5 5 5
14 17 18 15 11 11 9 6 6 5 3 4 3 2 2 0 1 1 1 2 1 1 0 2 2 4 4 4 8 7 3 4 3 6 9 10 12 7 7 4 2 8 7 4 6 4 1 4 4 4 5 5 4 3 2 3 3 3 2 1 2 2 1 1 1 2 1 2 0 4 5 4 1 3 3 3 4 6 5 5 5 5 4 4 4 5 5 5
12 14 18 15 10 9 6 7 8 5 3 3 3 2 2 1 1 1 2 1 1 1 1 3 3 4 6 2 4 6 6 5 3 6 5 4 8 8 5 1 1 7 8 9 9 4 2 2 1 2 4 4 5 2 1 2 2 2 2 1 2 2 1 1 0 1 2 1 2 4 5 3 1 2 3 2 1 2 2 2 4 5 6 6 5 5 5 5
12 12 16 16 13 10 5 5 6 3 2 3 4 3 2 0 1 3 2 1 1 1 1 3 2 4 5 3 4 6 4 4 5 6 5 2 6 8 3 1 1 2 3 6 7 3 2 2 0 1 1 3 3 1 1 0 1 3 2 2 2 2 2 2 1 1 2 1 3 3 4 2 3 1 2 1 0 1 3 2 3 5 6 6 6 6 6 6
11 10 13 17 16 13 7 3 3 3 3 5 5 2 1 0 2 2 1 2 1 1 2 2 2 3 3 1 4 6 3 3 6 6 5 4 6 7 6 5 3 1 2 3 2 2 3 3 2 1 1 4 4 2 2 2 2 1 1 2 2 1 1 1 0 1 2 2 4 2 4 2 3 2 2 1 1 3 4 3 3 5 6 7 7 7 6 5
11 9 11 17 16 14 10 5 3 3 4 5 3 1 2 2 2 1 1 2 2 1 1 1 1 2 2 1 4 5 2 2 5 4 3 2 4 4 4 7 4 2 2 3 1 1 2 2 3 2 1 5 8 3 1 1 3 4 1 2 3 2 2 2 1 1 2 1 3 2 2 2 2 1 2 1 2 2 3 4 4 5 7 8 8 7 6 6
10 7 8 15 18 14 11 6 2 3 5 4 1 1 4 3 1 1 0 1 1 1 0 0 1 1 3 3 3 4 1 3 4 4 3 2 3 3 3 7 8 3 1 2 1 2 1 1 5 6 2 6 7 5 3 3 4 3 2 4 3 3 3 3 2 2 3 3 0 1 0 2 2 1 1 2 3 3 4 4 5 6 6 6 7 7 7 6
8 6 5 13 19 16 12 7 2 3 5 2 2 3 4 1 2 2 1 1 1 1 1 1 1 1 4 3 2 2 1 2 3 4 5 4 3 3 3 6 9 5 2 1 1 1 1 1 3 3 2 5 5 3 2 3 2 0 2 3 2 3 3 1 1 1 2 3 2 1 1 2 1 1 1 2 4 5 5 5 6 7 6 4 5 7 6 5
7 4 3 11 19 17 12 8 2 4 4 2 3 3 2 0 1 1 1 1 1 2 2 1 1 2 2 1 2 2 1 1 2 2 4 3 1 2 2 2 5 6 3 2 1 1 1 1 2 1 0 3 4 3 2 3 2 1 1 1 3 2 1 1 2 1 1 2 1 0 2 2 1 1 1 2 4 5 6 6 6 8 6 5 6 7 5 5
6 4 2 9 19 17 11 8 2 4 3 3 4 3 1 1 1 1 1 1 0 0 1 1 1 2 1 0 2 2 1 1 2 2 2 1 1 2 2 1 1 3 3 2 1 1 2 0 2 0 0 2 2 2 1 2 2 2 2 3 2 0 0 0 1 0 1 2 0 0 3 4 2 1 2 2 4 4 4 4 5 6 5 5 6 6 5 5
4 3 1 7 19 16 11 8 2 4 3 5 4 2 1 1 1 1 1 1 0 0 1 1 1 1 1 0 1 3 3 1 2 2 1 0 1 1 2 1 1 1 2 3 0 1 2 1 2 0 1 2 0 2 1 2 3 4 3 3 1 1 1 0 1 1 2 4 2 1 2 3 2 1 1 3 3 3 2 2 3 5 6 6 6 6 6 7
3 2 1 8 20 15 10 7 2 3 4 4 3 1 1 1 1 0 0 1 1 0 1 1 1 1 0 0 1 1 2 1 2 1 1 1 2 0 2 1 0 1 2 2 1 1 1 1 2 2 1 2 1 1 1 2 4 3 2 1 1 1 2 2 1 1 2 3 3 3 2 1 2 0 1 2 2 3 3 3 5 6 7 7 7 7 7 8
2 1 1 10 20 12 8 8 5 4 5 3 1 1 1 1 2 1 0 0 1 0 1 1 2 1 1 0 1 0 2 2 2 1 1 1 1 1 1 0 1 2 2 1 1 0 1 1 1 1 1 2 0 2 3 2 2 1 0 1 2 1 0 0 1 1 2 2 2 2 3 2 2 1 3 2 1 1 3 4 5 6 8 8 7 7 8 8
2 2 1 12 21 9 4 9 7 4 3 2 2 2 1 1 3 2 1 1 1 1 1 1 2 1 2 1 0 1 1 2 1 1 1 1 0 1 1 0 1 2 2 1 2 1 1 1 2 1 1 1 2 3 2 2 3 3 2 2 1 1 1 1 0 1 1 2 1 1 5 4 2 1 2 2 1 1 3 4 5 7 9 9 8 9 9 9
2 2 2 14 20 6 4 7 3 2 2 2 1 1 1 1 2 2 1 1 1 0 0 2 2 2 2 1 1 1 1 1 1 1 1 1 1 0 1 1 1 2 1 1 2 1 1 0 2 1 2 2 2 2 1 2 1 2 2 1 1 1 1 2 2 1 2 0 0 1 3 3 1 1 2 2 2 3 3 4 6 8 9 9 9 10 10 9
1 0 2 16 18 3 5 5 0 2 3 0 1 2 2 2 2 1 0 0 0 0 1 1 1 1 1 0 1 1 1 0 1 1 1 1 1 1 1 1 2 2 1 1 2 2 1 0 1 1 2 1 0 2 0 2 1 2 1 1 1 1 1 2 2 0 1 2 2 1 3 2 2 1 2 3 3 5 4 5 7 8 9 9 10 10 9 9
1 1 1 14 14 1 4 3 2 2 2 1 1 2 1 2 2 1 0 1 1 1 2 2 0 1 2 1 2 2 1 1 0 1 1 2 2 1 1 1 2 2 1 0 1 2 2 2 1 2 1 0 1 1 1 1 1 2 1 1 1 2 3 1 1 1 2 3 3 2 4 2 2 3 3 3 4 6 6 5 6 7 8 8 8 8 8 8
1 0 2 9 14 8 3 1 3 4 3 3 3 2 2 2 2 1 0 1 1 0 2 2 0 2 3 1 2 2 1 1 0 1 0 1 1 1 1 2 2 1 0 1 0 2 1 2 1 1 2 2 3 2 2 1 1 2 1 2 3 4 4 1 1 1 3 2 3 4 5 4 2 3 3 5 6 7 8 7 5 5 7 7 7 8 7 7
1 1 2 5 10 8 3 1 3 5 4 4 3 1 1 3 1 1 0 1 0 0 2 2 1 1 2 1 2 2 1 1 1 1 2 2 1 1 2 3 2 1 1 1 1 0 1 1 2 1 2 3 3 2 1 1 1 3 2 4 6 6 4 2 1 2 3 4 4 8 7 8 10 8 7 8 9 8 9 10 9 8 8 8 8 8 8 8
1 1 1 2 3 4 3 2 3 3 3 2 2 2 3 3 2 1 0 0 1 1 1 2 2 2 2 2 2 2 0 1 1 2 2 1 1 1 2 1 2 3 2 1 2 1 1 2 2 3 5 5 4 3 2 1 5 6 4 6 7 7 7 6 6 4 4 3 4 4 4 7 12 11 10 10 11 10 9 9 10 9 9 9 8 9 9 9
1 2 1 0 0 1 2 1 2 4 4 2 1 2 4 4 3 2 1 1 0 2 0 1 2 2 1 2 2 2 1 1 0 2 2 0 2 2 1 0 2 4 3 1 2 2 2 1 2 3 4 6 7 5 4 4 6 7 7 8 8 9 10 11 10 7 7 6 7 1 2 9 13 13 13 12 11 11 11 9 9 9 9 8 8 9 9 9
2 3 1 1 1 1 1 1 2 4 5 3 2 2 3 5 5 2 1 1 1 1 1 1 2 2 1 1 1 2 2 1 1 1 3 2 2 2 1 0 1 2 2 1 2 2 2 1 2 2 4 6 6 3 3 5 5 6 9 11 10 10 12 13 12 8 9 12 13 10 11 15 16 14 13 11 10 9 9 7 7 8 8 8 8 9 9 9
1 2 2 2 3 2 1 1 1 3 3 1 1 2 3 5 5 2 1 1 1 2 2 1 4 4 2 1 1 0 1 0 3 1 3 3 1 2 2 1 2 1 2 1 1 2 2 0 2 2 3 3 2 1 2 4 5 7 9 9 9 9 10 12 12 9 9 12 14 12 13 14 13 10 8 8 7 7 8 7 7 7 6 7 9 9 9 9
3 3 4 4 3 0 0 0 0 1 1 1 1 3 3 4 5 5 3 0 0 2 2 2 7 5 1 0 1 1 1 2 4 3 2 2 1 1 1 1 4 4 1 1 1 2 1 0 1 1 3 2 1 1 2 3 4 7 11 8 10 9 7 8 9 8 9 8 6 5 7 8 7 4 3 5 5 7 9 7 7 7 6 7 9 8 9 9
4 4 3 3 3 1 1 1 0 0 2 1 2 3 3 3 5 5 3 1 0 1 0 3 6 4 1 2 2 1 2 3 4 4 3 4 5 4 3 4 4 3 3 3 1 1 1 1 1 1 3 1 2 3 4 3 3 3 4 4 9 9 6 5 7 9 11 8 4 4 5 4 4 5 7 7 5 8 10 7 5 8 9 9 9 8 8 8
Wind_Direction
41 41 48 59 62 60 56 49 45 38 34 32 32 36 36 33 25 30 38 36 38 33 34 38 155 190 203 205 190 59 26 18 21 31 35 8 354 358 0 7 17 26 34 55 84 79 65 56 47 54 55 48 23 352 28 17 2 6 60 80 77 63 62 16 28 33 75 104 93 97 103 94 100 89 120 88 68 80 75 70 69 65 63 68 78 90 105 121
42 49 61 67 64 57 50 41 38 31 29 25 29 36 38 36 30 43 60 58 58 50 47 45 73 169 194 201 215 219 18 6 19 29 18 359 1 6 9 14 26 33 46 68 73 70 73 52 45 61 57 49 19 13 47 14 11 42 66 77 69 64 60 16 30 33 68 105 102 90 79 75 75 69 146 95 78 81 80 77 78 76 75 79 78 86 102 103
46 58 69 67 57 46 38 31 27 25 25 23 31 40 41 40 37 49 64 62 65 63 60 55 57 138 195 201 215 224 272 354 27 19 356 355 2 7 11 17 30 38 49 63 71 77 83 69 65 69 66 60 29 38 56 17 8 30 54 82 79 87 80 44 45 50 66 105 105 96 83 68 56 26 88 105 84 66 66 68 72 82 81 82 78 79 83 76
50 64 69 60 46 35 29 22 17 17 19 26 39 45 45 43 43 48 51 58 66 67 66 62 57 55 130 216 225 229 264 356 31 353 346 355 2 11 14 15 27 44 58 69 77 81 82 71 68 65 69 68 45 56 50 18 34 37 43 83 94 115 87 45 44 57 54 87 95 104 94 71 56 36 41 135 91 64 53 44 57 85 83 83 87 80 74 75
53 64 63 50 38 30 23 14 9 14 24 40 54 54 49 45 47 43 37 39 54 69 70 66 61 56 58 69 212 229 267 31 6 339 348 356 5 20 20 20 26 38 70 101 86 71 68 69 72 58 57 63 50 65 51 28 74 74 52 72 84 94 90 51 27 44 39 87 87 86 79 77 79 45 39 64 82 70 42 33 55 73 71 78 87 93 96 87
54 60 55 43 34 28 20 13 9 17 38 63 68 63 57 49 54 43 33 34 39 64 74 65 59 58 60 64 76 78 63 92 331 334 351 360 16 31 36 42 44 62 93 108 88 74 67 65 76 68 69 68 57 69 68 40 79 99 74 61 63 69 86 66 35 40 48 87 75 76 84 102 102 67 47 62 71 67 33 34 54 61 64 82 94 102 95 77
54 52 46 36 33 32 25 20 15 21 53 79 77 68 65 58 57 55 41 41 43 44 36 23 19 64 67 62 66 66 70 68 331 338 357 10 30 39 56 69 78 96 101 93 82 83 78 73 83 85 86 80 69 78 80 66 69 94 95 75 68 71 81 71 62 66 72 82 80 98 106 94 92 87 65 64 66 61 51 52 60 68 73 87 96 87 69 66
49 43 37 32 37 40 32 28 24 31 70 86 80 73 72 68 64 71 62 54 51 49 46 50 60 157 111 67 66 62 61 7 339 349 9 24 41 45 65 78 81 95 89 78 82 89 80 79 84 80 83 83 86 94 90 74 63 80 100 100 86 79 83 84 82 82 83 89 98 100 89 79 89 95 77 66 61 54 52 69 68 80 84 74 71 55 47 54
42 37 32 34 46 46 36 32 31 43 80 87 79 81 85 81 73 71 66 60 57 57 57 64 79 103 104 106 92 66 25 348 343 359 20 34 48 55 67 67 70 83 74 64 75 85 80 88 70 80 99 97 94 96 99 82 65 86 106 107 101 89 81 88 87 87 90 80 94 98 88 89 104 92 73 66 48 34 39 68 52 50 66 48 37 19 352 347
36 33 33 39 50 49 40 36 34 46 78 83 76 82 93 92 74 63 59 58 58 56 57 66 73 79 81 74 75 74 2 348 360 12 29 41 53 59 60 60 70 76 70 61 60 61 80 106 102 101 103 91 78 64 62 101 117 119 111 99 93 88 70 66 84 85 85 54 33 93 93 86 113 115 80 66 21 359 347 56 30 13 42 22 7 341 309 296
32 31 34 37 44 45 41 39 36 40 63 80 75 78 87 87 74 66 66 67 66 61 53 61 65 67 67 62 65 71 356 356 12 18 35 45 54 55 52 54 66 72 70 61 53 56 79 99 111 115 98 87 84 71 74 107 127 130 116 98 90 85 62 40 54 40 49 57 10 85 102 72 49 56 58 13 346 339 332 32 25 17 20 359 349 319 293 285
27 27 30 34 39 34 33 42 38 35 43 74 78 74 78 75 69 74 79 73 67 63 58 54 49 57 62 59 58 42 2 9 17 22 39 46 53 55 55 58 63 69 75 67 46 47 61 82 114 91 94 125 103 85 104 123 122 139 126 98 99 87 57 26 22 5 352 69 350 275 120 63 41 39 24 352 340 323 325 22 17 11 350 331 325 305 296 294
22 22 25 29 33 32 25 36 40 34 32 48 87 76 75 76 73 73 75 72 61 55 57 56 58 62 64 64 44 27 16 17 23 41 46 44 53 57 59 62 64 67 73 72 59 61 70 72 87 88 81 116 104 99 128 149 130 133 45 84 123 99 54 22 11 355 359 89 343 264 162 64 50 32 20 2 343 320 340 30 4 356 333 323 318 308 307 306
19 19 21 25 27 32 26 18 41 39 31 38 89 90 79 83 78 72 65 64 59 44 47 56 64 61 61 92 49 23 20 25 34 39 31 33 51 59 60 62 64 66 69 71 66 68 76 75 80 87 57 57 103 126 118 112 33 102 57 42 48 86 61 34 18 2 26 130 339 280 197 90 68 27 23 3 338 334 15 27 0 355 344 339 333 325 322 314
17 16 17 22 23 26 29 22 38 54 42 45 67 101 98 96 85 74 64 61 61 53 55 63 80 73 65 98 48 15 20 28 28 21 15 21 32 36 39 51 57 61 63 62 61 65 70 68 65 71 57 48 120 133 114 103 74 33 273 87 28 48 94 57 34 17 13 291 339 314 186 108 73 26 24 349 325 320 7 20 9 6 357 355 353 345 336 325
15 14 15 21 23 22 28 32 40 87 66 56 62 68 90 109 102 81 64 60 63 58 56 55 67 89 82 73 12 11 19 15 11 15 19 25 30 19 360 28 44 52 60 49 48 54 55 62 64 55 66 53 50 103 120 107 82 23 23 78 25 33 99 94 64 26 359 305 351 0 126 118 61 26 23 340 309 286 14 29 20 19 15 13 11 3 355 346
14 13 15 21 22 20 25 38 44 124 129 76 66 64 63 60 66 165 81 93 72 56 46 36 49 94 74 26 5 6 0 355 3 18 24 28 34 29 22 31 3 14 51 36 36 34 26 42 89 85 60 46 16 309 148 74 58 45 50 91 51 27 51 357 89 22 360 11 44 46 85 91 45 32 31 8 326 325 41 41 39 38 34 31 25 24 23 16
15 13 15 22 20 18 27 34 355 175 177 168 94 68 62 61 66 69 60 78 91 8 30 22 23 101 58 11 357 328 325 347 8 18 19 17 28 32 35 40 351 340 6 24 26 18 2 23 77 97 50 28 25 358 68 70 32 46 41 94 100 64 56 37 43 2 358 37 64 66 85 80 71 75 62 35 355 37 71 57 55 50 41 37 31 35 32 31
15 13 16 23 20 21 27 29 10 206 203 196 187 133 57 56 60 58 50 55 59 17 44 9 3 100 54 342 328 322 327 357 14 18 16 8 10 33 35 33 31 32 52 40 18 6 6 54 38 60 36 14 16 7 50 68 20 56 46 64 97 91 76 43 21 4 348 36 54 58 83 87 84 78 62 49 26 75 85 73 63 48 39 36 33 37 32 33
15 14 16 22 23 24 27 29 39 188 204 188 177 143 133 45 48 44 34 46 57 43 79 23 358 81 67 327 332 344 353 16 27 18 11 5 346 27 22 7 38 57 47 20 21 357 359 69 52 33 16 347 347 350 30 67 29 84 102 90 90 92 90 63 13 18 322 20 53 53 82 87 77 62 50 42 89 89 77 71 60 40 37 35 32 33 28 30
18 16 16 22 26 26 28 30 35 133 148 147 157 105 88 286 71 126 19 50 52 36 66 73 45 65 40 334 349 358 346 19 26 14 10 10 345 6 2 346 44 58 34 300 347 341 31 66 51 3 346 324 339 326 191 138 99 93 111 111 101 85 84 76 5 17 316 257 69 62 90 83 64 59 56 37 93 77 52 54 47 36 39 35 29 25 21 17
20 18 17 22 32 31 31 32 35 103 144 134 119 94 97 125 117 132 138 94 52 23 57 76 65 59 23 18 7 357 310 14 18 9 7 10 16 25 358 22 63 62 15 304 199 76 59 59 31 358 333 268 24 132 163 99 103 124 152 154 107 86 103 124 38 25 357 274 107 158 130 91 66 56 59 34 64 60 17 357 4 14 27 28 20 12 7 358
21 20 20 21 39 43 44 46 49 90 122 117 108 102 109 117 124 131 108 107 88 6 25 46 53 37 14 35 12 0 31 29 5 359 360 2 25 34 19 50 62 61 39 29 46 78 75 51 10 359 300 236 99 82 184 119 84 61 63 205 106 100 255 118 71 34 22 32 88 173 179 116 134 131 103 63 35 11 325 295 284 300 345 355 346 341 339 339
21 21 21 22 40 58 60 69 77 90 100 104 102 107 124 123 126 129 95 100 103 45 36 49 91 51 35 22 2 10 68 46 350 347 357 7 36 342 30 57 54 59 56 51 63 75 77 41 352 328 313 307 95 67 24 266 78 56 39 27 82 86 346 23 48 18 67 72 74 215 226 172 173 183 152 124 188 220 272 259 225 223 271 296 303 306 312 318
21 22 23 22 31 70 77 71 78 88 93 98 100 110 127 129 138 134 120 95 59 84 116 137 148 44 31 359 359 9 130 66 34 350 357 18 18 300 82 56 27 60 73 64 73 74 60 30 322 299 32 9 96 61 18 328 152 87 45 24 19 35 2 351 314 245 201 114 62 293 268 160 156 198 198 159 202 200 196 237 209 183 261 287 309 317 321 312
20 21 23 25 28 51 93 65 77 100 95 89 104 128 136 136 146 133 162 105 50 359 354 32 112 13 3 353 352 301 157 50 28 15 14 19 11 312 108 4 31 88 164 83 83 85 51 29 337 338 164 357 78 70 24 332 304 95 54 36 340 331 297 253 204 235 268 74 64 304 309 349 155 196 196 182 229 220 214 233 223 232 259 294 303 305 319 319
22 21 22 26 30 40 95 106 104 111 92 105 119 127 139 146 133 86 233 76 44 346 357 1 336 1 359 356 352 268 92 342 316 29 17 13 13 22 62 34 45 74 116 160 91 76 23 17 32 26 297 347 48 53 21 338 320 60 50 328 263 249 235 200 194 224 28 81 179 138 338 294 218 162 160 179 249 238 232 233 227 234 255 283 298 303 309 311
22 22 22 24 28 42 68 96 106 90 92 143 143 116 147 159 150 302 253 78 29 5 21 355 344 7 359 6 16 60 78 322 341 18 358 13 27 37 71 58 68 83 75 238 107 92 6 19 28 9 359 31 35 13 352 328 336 58 50 332 240 158 170 177 197 173 72 247 208 68 5 291 240 107 141 203 251 251 245 234 227 230 244 270 305 317 314 311
21 23 23 21 25 38 58 75 82 97 120 151 151 149 169 136 261 255 73 113 4 25 95 320 344 3 346 357 26 45 27 2 36 344 337 22 28 35 77 59 83 83 54 32 87 119 72 36 10 351 15 15 341 337 335 320 357 70 99 94 103 109 112 183 216 146 146 264 234 49 10 327 337 123 163 205 248 265 261 229 224 229 239 260 285 306 314 321
17 23 21 20 26 28 41 60 62 87 122 150 156 141 144 103 214 148 53 104 358 17 284 349 351 330 341 12 44 29 24 28 11 334 347 38 21 38 85 246 297 79 66 60 73 101 116 94 271 13 27 328 302 326 2 318 349 126 163 152 138 149 135 161 335 156 214 243 99 60 21 347 318 119 156 189 262 305 298 228 218 226 241 255 265 282 298 308
12 19 18 19 26 23 29 46 41 67 100 127 140 118 128 163 59 104 74 40 33 1 344 20 5 337 0 46 46 16 26 31 352 356 26 30 13 30 49 310 340 91 97 72 70 92 109 102 83 56 18 317 297 216 116 245 199 167 194 220 179 171 173 185 159 183 266 352 101 71 19 301 268 56 119 189 354 276 276 269 238 235 247 259 268 281 289 296
7 11 14 17 22 26 37 43 29 66 105 122 126 106 133 223 24 77 348 330 8 6 23 23 354 4 2 54 38 2 350 22 11 20 27 14 31 37 33 23 334 275 62 46 54 97 91 65 11 232 179 355 334 246 162 166 199 204 221 241 242 210 144 211 127 199 293 20 109 75 9 272 250 42 79 87 261 241 245 265 270 261 263 269 276 287 295 301
0 3 11 14 16 23 31 36 43 91 126 126 122 66 80 86 55 88 297 330 1 351 36 21 351 357 307 338 33 357 344 15 360 18 20 355 51 70 70 47 358 293 33 20 358 28 124 132 7 359 131 3 356 358 48 25 354 1 333 302 332 15 17 353 344 295 299 20 116 98 352 288 264 92 104 36 340 282 258 263 272 271 272 278 284 293 298 298
354 357 4 10 14 17 20 25 53 121 141 136 138 49 63 65 113 125 254 275 323 330 39 11 312 4 27 48 15 325 30 54 352 0 9 359 40 46 59 41 18 353 358 33 49 5 2 124 20 15 352 350 14 29 357 325 339 3 318 314 8 46 2 341 329 321 315 317 325 137 251 303 332 65 107 347 325 296 270 266 272 268 265 275 285 287 284 290
350 357 358 5 10 12 12 17 45 144 152 135 48 61 71 89 200 160 158 202 195 199 87 10 272 40 41 46 24 318 334 50 14 11 18 20 36 23 5 7 8 4 337 8 57 351 345 79 36 26 333 349 20 28 330 300 303 51 259 294 28 29 341 4 27 4 320 300 290 192 256 278 306 69 82 287 276 263 256 254 263 267 263 266 277 278 276 299
344 349 357 6 5 3 6 12 43 149 159 127 54 59 76 160 191 140 109 112 135 157 149 133 9 57 62 16 38 41 284 7 13 15 36 38 45 30 16 351 359 2 357 10 37 341 311 99 67 45 104 29 13 357 353 335 311 305 307 10 49 1 315 119 85 102 198 265 285 321 293 274 220 155 159 263 259 247 250 255 262 271 273 270 274 275 278 307
346 339 325 3 1 359 360 6 53 145 140 81 71 77 82 28 15 36 32 21 39 115 149 139 1 17 85 74 13 4 331 3 350 359 63 60 59 43 20 21 8 358 356 348 83 30 313 115 89 348 95 70 3 303 4 8 308 305 19 75 103 257 223 177 290 224 241 271 245 354 303 301 323 45 152 214 241 240 244 256 267 280 286 281 283 283 283 304
344 336 276 358 357 356 359 7 76 142 91 67 77 107 136 51 21 13 21 10 18 17 131 119 27 346 245 143 33 334 319 319 13 39 81 45 70 65 334 15 85 6 340 298 266 70 299 265 105 102 323 49 6 251 218 86 38 26 72 110 197 308 18 304 318 2 328 308 293 294 290 269 277 11 140 204 237 249 232 245 296 313 317 312 307 302 300 309
347 340 199 356 355 357 3 13 86 113 64 75 95 143 138 88 84 62 29 357 343 173 104 104 58 18 320 347 88 297 320 16 58 63 94 26 52 138 308 352 55 13 348 298 302 95 283 294 100 142 268 322 327 272 328 74 60 54 117 133 15 351 339 354 18 321 289 308 313 326 343 228 195 219 250 222 254 267 251 282 319 323 320 316 309 305 306 309
31 11 202 351 355 359 17 33 59 53 54 86 120 135 93 104 130 109 215 279 352 314 59 120 157 119 112 284 304 297 8 45 78 51 43 41 45 119 63 341 315 4 359 348 88 95 279 304 354 115 185 263 338 41 5 10 22 352 83 54 65 84 258 186 84 2 300 298 298 310 317 336 87 160 236 253 321 300 279 293 302 306 309 308 300 300 304 305
75 28 233 352 355 351 26 42 48 37 65 98 78 111 103 119 130 102 125 171 10 321 323 86 116 120 145 175 290 164 70 55 84 66 81 120 299 88 87 45 317 342 313 163 99 1 315 294 310 323 163 183 68 49 354 346 343 325 346 27 26 357 277 245 327 63 357 291 265 293 298 304 46 96 248 282 339 299 278 278 280 291 300 302 300 299 301 302
78 30 286 349 354 360 66 50 44 24 77 99 47 89 81 89 122 89 98 151 356 307 11 58 77 84 134 136 32 153 144 77 100 82 99 107 10 70 99 119 252 287 287 140 85 24 343 323 287 304 53 46 50 63 336 323 307 291 318 14 352 277 268 297 314 141 153 282 18 307 285 278 89 103 251 266 277 275 269 260 271 289 295 297 298 298 299 298
66 290 312 352 353 20 89 59 81 30 51 146 341 38 25 47 109 104 86 72 356 138 56 49 63 55 94 163 96 150 199 83 122 70 92 129 125 126 94 239 233 231 209 164 137 164 182 45 307 289 91 79 102 139 205 304 274 250 250 111 235 295 350 341 340 21 193 193 171 212 261 253 107 122 250 261 262 269 260 243 260 285 296 297 296 296 296 296
27 229 292 357 359 102 124 71 145 93 68 178 69 60 38 37 64 69 87 63 23 170 110 102 189 66 89 112 97 122 242 279 51 20 65 160 145 129 314 283 247 236 232 173 138 179 177 106 339 314 14 136 213 173 199 248 242 248 221 127 178 107 85 101 133 88 248 213 182 229 261 273 108 148 218 249 257 272 277 260 249 266 286 296 297 296 297 297
39 205 244 1 24 64 101 99 139 130 139 130 92 85 87 74 51 352 45 79 30 273 111 104 170 89 102 116 92 85 339 321 62 356 104 146 148 150 344 325 288 266 223 36 225 212 182 118 170 309 341 331 329 320 319 39 169 235 183 186 195 163 160 196 149 188 242 193 162 215 248 291 292 225 247 270 275 291 307 312 302 283 288 297 298 299 302 302
78 47 283 348 28 56 73 358 83 115 148 142 115 120 103 96 99 300 313 101 115 254 77 95 164 128 107 121 97 81 14 10 71 140 164 167 168 113 18 358 321 282 172 104 348 265 143 121 135 174 248 286 327 331 342 38 229 232 210 210 202 187 197 199 166 220 195 146 199 231 252 288 290 286 300 306 304 310 316 320 321 314 309 308 305 304 304 300
110 89 11 328 6 46 70 39 43 90 150 166 141 143 132 115 118 157 256 293 191 195 64 85 179 194 151 144 134 128 168 337 66 119 142 157 122 69 9 339 315 310 281 265 332 328 182 162 133 166 227 253 276 258 185 201 249 245 233 222 203 189 192 198 215 210 136 141 251 232 211 265 283 293 302 305 308 311 312 314 315 312 308 304 302 300 297 298
34 129 93 335 356 39 48 45 71 84 85 78 92 126 136 140 150 163 154 70 185 228 212 128 215 240 164 159 158 143 162 272 142 138 137 130 134 120 51 308 301 325 332 321 317 307 259 212 150 171 241 258 262 252 194 204 249 252 242 235 215 194 191 207 225 203 165 218 262 244 200 265 279 289 294 296 301 305 305 306 303 298 294 292 295 296 296 300
62 101 80 339 88 133 352 353 103 101 85 81 106 149 163 161 162 170 144 117 148 257 265 200 188 166 124 158 146 147 182 218 341 162 167 160 162 165 151 152 257 329 353 29 344 317 264 211 146 184 267 271 270 273 194 211 249 256 239 233 226 212 204 216 233 218 205 242 265 277 282 282 280 277 280 288 297 298 295 293 287 286 290 295 296 297 297 301
137 144 141 70 78 108 33 348 97 97 78 71 131 155 167 161 161 163 170 162 152 169 211 204 143 126 103 199 157 148 211 81 15 19 166 159 172 197 194 159 139 71 1 7 357 319 281 312 117 185 268 282 287 42 164 206 241 266 260 241 222 220 219 229 242 233 225 249 265 273 278 278 274 269 271 280 288 288 284 289 293 290 294 299 296 296 299 304
102 126 141 117 92 18 331 45 35 89 130 211 163 156 177 180 166 147 128 338 313 162 203 163 133 121 38 4 112 31 18 54 34 37 135 138 78 129 156 109 138 153 172 183 306 310 282 257 122 242 298 303 183 212 231 229 239 268 278 253 205 200 208 225 230 218 211 224 243 259 261 264 271 286 285 267 269 287 292 298 308 309 308 302 296 297 301 304
113 103 120 102 92 286 290 93 15 148 171 189 117 152 178 173 160 142 112 119 130 69 321 158 139 126 88 140 137 26 51 91 85 80 91 91 82 77 72 76 90 131 170 161 76 345 283 243 178 279 297 268 252 277 273 267 250 255 278 216 182 186 203 229 236 223 214 208 198 224 242 276 309 313 303 293 290 301 304 309 314 308 306 302 294 291 296 302